Weather History for Quakertown, PA

Change the Weather History Date:

Monday, May 13, 2013

  Actual Average (KABE) Record (KABE)
Temperature  
Mean Temperature 44 °F 59 °F  
Max Temperature 53 °F 71 °F 90 °F (1944)
Min Temperature 35 °F 47 °F 33 °F (1967)
Degree Days  
Heating Degree Days 21 7  
Month to date heating degree days 110  
Since 1 July heating degree days 5680  
Cooling Degree Days 0 1  
Month to date cooling degree days 7  
Year to date cooling degree days 12  
Moisture  
Dew Point 29 °F    
Average Humidity 57    
Maximum Humidity 87    
Minimum Humidity 30    
Precipitation  
Precipitation 0.00 in 0.13 in 1.70 in (1948)
Month to date precipitation 1.62  
Year to date precipitation 14.30  
Snow  
Snow 0.00 in 0.00 in 0.00 in ()
Month to date snowfall 0.0  
Since 1 July snowfall 32.9  
Snow Depth -    
Sea Level Pressure  
Sea Level Pressure 30.05 in    
Wind  
Wind Speed 4 mph (WSW)    
Max Wind Speed 13 mph    
Max Gust Speed 21 mph    
Visibility 10 miles    
Events      
T = Trace of Precipitation, MM = Missing Value Source: NWS Daily Summary

Daily Weather History Graph

Daily Weather History Graph

Search for Another Location

Airport:

Trip Planner

Search our weather history database for the weather conditions in past years. The results will help you decide how hot, cold, wet, or windy it might be!

Date:

Astronomy

May. 13, 2013 Rise Set
Actual Time 5:46 AM EDT 8:09 PM EDT
Civil Twilight 5:16 AM EDT 8:40 PM EDT
Nautical Twilight 4:38 AM EDT 9:18 PM EDT
Astronomical Twilight 3:56 AM EDT 10:00 PM EDT
Moon 8:30 AM EDT (5/13) 11:17 PM EDT (5/13)
Length of Visible Light 15h 24m
Length of Day
14h 22m
Waxing Crescent, 12% of the Moon is Illuminated
May 13
Waxing Crescent
May 18
First Quarter
May 25
Full
May 31
Last Quarter
Jun 8
New

Hourly Weather History & Observations

Time (EDT) Temp. Windchill Dew Point Humidity Pressure Visibility Wind Dir Wind Speed Gust Speed Precip Events Conditions
12:15 AM 44.6 °F 43.1 °F 32.0 °F 61% 29.99 in 10.0 mi WSW 3.5 mph - N/A   Clear
12:35 AM 44.6 °F - 32.0 °F 61% 29.99 in 10.0 mi Calm Calm - N/A   Clear
12:55 AM 44.6 °F - 32.0 °F 61% 30.00 in 10.0 mi Calm Calm - N/A   Clear
1:15 AM 41.0 °F - 33.8 °F 76% 30.00 in 10.0 mi Calm Calm - N/A   Clear
1:35 AM 39.2 °F - 35.6 °F 87% 29.99 in 10.0 mi Calm Calm - N/A   Clear
1:55 AM 39.2 °F - 33.8 °F 81% 29.99 in 10.0 mi Calm Calm - N/A   Clear
2:15 AM 39.2 °F 37.0 °F 33.8 °F 81% 29.99 in 10.0 mi SW 3.5 mph - N/A   Clear
2:35 AM 39.2 °F - 33.8 °F 81% 29.99 in 10.0 mi Calm Calm - N/A   Clear
2:55 AM 37.4 °F - 33.8 °F 87% 29.99 in 10.0 mi Calm Calm - N/A   Clear
3:15 AM 37.4 °F 34.9 °F 33.8 °F 87% 29.99 in 10.0 mi SSW 3.5 mph - N/A   Clear
3:35 AM 39.2 °F 37.0 °F 32.0 °F 75% 29.99 in 10.0 mi SSW 3.5 mph - N/A   Clear
3:55 AM 39.2 °F - 32.0 °F 75% 29.99 in 10.0 mi Calm Calm - N/A   Clear
4:15 AM 39.2 °F 37.0 °F 32.0 °F 75% 29.99 in 10.0 mi SW 3.5 mph - N/A   Clear
4:35 AM 41.0 °F 39.0 °F 30.2 °F 65% 30.00 in 10.0 mi SW 3.5 mph - N/A   Clear
4:55 AM 41.0 °F 38.0 °F 30.2 °F 65% 30.01 in 10.0 mi SW 4.6 mph - N/A   Clear
5:15 AM 41.0 °F - 30.2 °F 65% 30.02 in 10.0 mi Calm Calm - N/A   Clear
5:35 AM 41.0 °F - 30.2 °F 65% 30.02 in 10.0 mi Calm Calm - N/A   Clear
5:55 AM 41.0 °F - 32.0 °F 70% 30.02 in 10.0 mi Calm Calm - N/A   Clear
6:15 AM 39.2 °F - 32.0 °F 75% 30.02 in 10.0 mi Calm Calm - N/A   Clear
6:35 AM 39.2 °F - 32.0 °F 75% 30.03 in 10.0 mi Calm Calm - N/A   Clear
6:55 AM 41.0 °F - 32.0 °F 70% 30.04 in 10.0 mi Calm Calm - N/A   Clear
7:15 AM 44.6 °F 43.1 °F 32.0 °F 61% 30.04 in 10.0 mi SSW 3.5 mph - N/A   Clear
7:35 AM 44.6 °F 41.4 °F 32.0 °F 61% 30.05 in 10.0 mi SW 5.8 mph - N/A   Clear
7:55 AM 46.4 °F 42.9 °F 32.0 °F 57% 30.05 in 10.0 mi WSW 6.9 mph - N/A   Clear
8:15 AM 46.4 °F 42.9 °F 32.0 °F 57% 30.06 in 10.0 mi West 6.9 mph - N/A   Partly Cloudy
8:35 AM 46.4 °F 43.5 °F 32.0 °F 57% 30.07 in 10.0 mi WNW 5.8 mph - N/A   Partly Cloudy
8:55 AM 46.4 °F 42.9 °F 32.0 °F 57% 30.07 in 10.0 mi West 6.9 mph - N/A   Mostly Cloudy
9:15 AM 46.4 °F 41.9 °F 28.4 °F 50% 30.08 in 10.0 mi SW 9.2 mph 20.7 mph N/A   Scattered Clouds
9:35 AM 48.2 °F - 26.6 °F 43% 30.07 in 10.0 mi WSW 12.7 mph 16.1 mph N/A   Scattered Clouds
9:55 AM 46.4 °F 41.5 °F 26.6 °F 46% 30.07 in 10.0 mi WSW 10.4 mph 16.1 mph N/A   Mostly Cloudy
10:15 AM 48.2 °F - 26.6 °F 43% 30.07 in 10.0 mi SW 10.4 mph - N/A   Overcast
10:35 AM 46.4 °F 42.4 °F 26.6 °F 46% 30.08 in 10.0 mi WSW 8.1 mph - N/A   Overcast
10:55 AM 48.2 °F - 26.6 °F 43% 30.08 in 10.0 mi SW 9.2 mph - N/A   Mostly Cloudy
11:15 AM 50.0 °F - 26.6 °F 40% 30.08 in 10.0 mi West 11.5 mph 16.1 mph N/A   Mostly Cloudy
11:35 AM 48.2 °F - 26.6 °F 43% 30.08 in 10.0 mi WSW 6.9 mph - N/A   Mostly Cloudy
11:55 AM 48.2 °F - 26.6 °F 43% 30.08 in 10.0 mi SSW 11.5 mph - N/A   Overcast
12:15 PM 48.2 °F - 26.6 °F 43% 30.08 in 10.0 mi WSW 4.6 mph - N/A   Overcast
12:35 PM 50.0 °F - 26.6 °F 40% 30.08 in 10.0 mi SW 5.8 mph 16.1 mph N/A   Mostly Cloudy
12:55 PM 50.0 °F - 26.6 °F 40% 30.08 in 10.0 mi SW 11.5 mph - N/A   Overcast
1:15 PM 50.0 °F - 26.6 °F 40% 30.08 in 10.0 mi WSW 11.5 mph 16.1 mph N/A   Overcast
1:35 PM 48.2 °F - 26.6 °F 43% 30.07 in 10.0 mi West 9.2 mph - N/A   Overcast
1:55 PM 48.2 °F - 26.6 °F 43% 30.07 in 10.0 mi West 5.8 mph - N/A   Overcast
2:15 PM 50.0 °F - 26.6 °F 40% 30.07 in 10.0 mi West 11.5 mph 18.4 mph N/A   Mostly Cloudy
2:35 PM 50.0 °F - 24.8 °F 37% 30.07 in 10.0 mi West 10.4 mph 16.1 mph N/A   Mostly Cloudy
2:55 PM 50.0 °F - 24.8 °F 37% 30.06 in 10.0 mi West 10.4 mph 17.3 mph N/A   Overcast
3:15 PM 50.0 °F - 24.8 °F 37% 30.06 in 10.0 mi SW 12.7 mph 18.4 mph N/A   Mostly Cloudy
3:35 PM 51.8 °F - 24.8 °F 35% 30.05 in 10.0 mi WSW 9.2 mph 17.3 mph N/A   Scattered Clouds
4:35 PM 50.0 °F - 24.8 °F 37% 30.05 in 10.0 mi WSW 6.9 mph - N/A   Partly Cloudy
4:55 PM 51.8 °F - 24.8 °F 35% 30.04 in 10.0 mi SW 9.2 mph - N/A   Partly Cloudy
5:15 PM 53.6 °F - 23.0 °F 30% 30.04 in 10.0 mi West 10.4 mph - N/A   Clear
5:35 PM 51.8 °F - 23.0 °F 33% 30.04 in 10.0 mi WSW 6.9 mph 17.3 mph N/A   Clear
5:55 PM 51.8 °F - 23.0 °F 33% 30.04 in 10.0 mi West 9.2 mph 16.1 mph N/A   Clear
6:15 PM 50.0 °F - 23.0 °F 35% 30.04 in 10.0 mi WSW 5.8 mph - N/A   Partly Cloudy
6:35 PM 50.0 °F - 23.0 °F 35% 30.04 in 10.0 mi WNW 6.9 mph - N/A   Partly Cloudy
6:55 PM 50.0 °F - 23.0 °F 35% 30.04 in 10.0 mi WSW 4.6 mph - N/A   Scattered Clouds
7:35 PM 50.0 °F - 26.6 °F 40% 30.06 in 10.0 mi NW 5.8 mph - N/A   Clear
8:15 PM 48.2 °F - 28.4 °F 46% 30.07 in 10.0 mi North 9.2 mph - N/A   Mostly Cloudy
8:35 PM 46.4 °F 41.5 °F 28.4 °F 50% 30.08 in 10.0 mi North 10.4 mph - N/A   Partly Cloudy
8:55 PM 46.4 °F 43.5 °F 30.2 °F 53% 30.09 in 10.0 mi North 5.8 mph - N/A   Clear
9:15 PM 44.6 °F 42.2 °F 30.2 °F 57% 30.10 in 10.0 mi North 4.6 mph - N/A   Clear
9:35 PM 44.6 °F - 32.0 °F 61% 30.11 in 10.0 mi Calm Calm - N/A   Clear
9:55 PM 41.0 °F - 32.0 °F 70% 30.12 in 10.0 mi Calm Calm - N/A   Clear
10:15 PM 39.2 °F - 32.0 °F 75% 30.13 in 10.0 mi Calm Calm - N/A   Clear
10:35 PM 39.2 °F - 33.8 °F 81% 30.13 in 10.0 mi Calm Calm - N/A   Clear
10:55 PM 37.4 °F - 32.0 °F 81% 30.13 in 10.0 mi Calm Calm - N/A   Clear
11:15 PM 37.4 °F - 32.0 °F 81% 30.13 in 10.0 mi Calm Calm - N/A   Clear
11:35 PM 35.6 °F - 32.0 °F 87% 30.13 in 10.0 mi Calm Calm - N/A   Clear
11:55 PM 35.6 °F - 32.0 °F 87% 30.14 in 10.0 mi Calm Calm - N/A   Clear